N9WFD Weather Reports


Display with metric or nautical units.
time (UTC)temp
F
wind
direction
speed
MPH
gust
MPH
rain 1hr
in
rain 24hr
in
rain mn
in
humidity
%
barometer
mb
20260507051555 40 46 0.0 0.0 0.00 0.00 0.00 62 1015.4
20260507050032 40 46 0.0 0.0 0.00 0.00 0.00 62 1015.3
20260507044539 41 46 0.0 1.0 0.00 0.00 0.00 60 1015.3
20260507043018 41 46 0.0 1.0 0.00 0.00 0.00 59 1015.3
20260507041517 41 46 0.0 1.0 0.00 0.00 0.00 59 1015.3
20260507040014 42 46 0.0 2.0 0.00 0.00 0.00 57 1015.4
20260507034513 42 46 1.0 2.0 0.00 0.00 0.00 56 1015.3
20260507033010 43 46 1.0 2.0 0.00 0.00 0.00 55 1015.4
20260507031508 44 46 2.0 5.0 0.00 0.00 0.00 54 1015.5
20260507030008 44 62 2.0 7.0 0.00 0.00 0.00 53 1015.4
20260507024506 44 43 2.0 7.0 0.00 0.00 0.00 52 1015.3
20260507023034 45 46 4.0 10.0 0.00 0.00 0.00 51 1015.1
20260507021531 45 85 3.0 7.0 0.00 0.00 0.00 50 1014.9
20260507020107 46 85 2.0 8.0 0.00 0.00 0.00 49 1014.7
20260507014615 46 46 3.0 10.0 0.00 0.00 0.00 48 1014.6
20260507013056 47 37 5.0 11.0 0.00 0.00 0.00 46 1014.5
20260507011553 47 29 5.0 9.0 0.00 0.00 0.00 46 1014.4
20260507004549 48 6 6.0 15.0 0.00 0.00 0.00 44 1014.2
20260507003046 49 35 3.0 20.0 0.00 0.00 0.00 45 1014.1
20260507001550 50 74 7.0 17.0 0.00 0.00 0.00 44 1013.9
20260507000045 51 34 10.0 18.0 0.00 0.00 0.00 43 1013.7
20260506234543 51 42 10.0 18.0 0.00 0.00 0.00 44 1013.6
20260506233040 51 346 10.0 21.0 0.00 0.00 0.00 43 1013.5
20260506231540 51 72 8.0 18.0 0.00 0.00 0.00 43 1013.3
20260506230038 52 27 5.0 16.0 0.00 0.00 0.00 43 1013.2
20260506224538 52 52 7.0 18.0 0.00 0.00 0.00 42 1013.1
20260506223008 52 10 10.0 19.0 0.00 0.00 0.00 42 1013.0
20260506221610 52 46 8.0 15.0 0.00 0.00 0.00 42 1012.9
20260506220003 52 69 5.0 16.0 0.00 0.00 0.00 43 1012.8
20260506214503 52 75 10.0 18.0 0.00 0.00 0.00 42 1012.7
20260506213001 53 47 8.0 16.0 0.00 0.00 0.00 41 1012.8
20260506211501 54 39 9.0 19.0 0.00 0.00 0.00 41 1012.6
20260506210051 53 53 8.0 16.0 0.00 0.00 0.00 42 1012.6
20260506204550 54 34 7.0 17.0 0.00 0.00 0.00 40 1012.5
20260506203052 54 83 9.0 13.0 0.00 0.00 0.00 39 1012.5
20260506201607 54 65 7.0 19.0 0.00 0.00 0.00 39 1012.6
20260506200048 54 79 10.0 16.0 0.00 0.00 0.00 38 1012.7
20260506194552 54 15 9.0 19.0 0.00 0.00 0.00 37 1012.8
20260506193051 54 4 7.0 17.0 0.00 0.00 0.00 39 1012.9
20260506191546 54 16 9.0 15.0 0.00 0.00 0.00 37 1012.7
20260506190046 54 46 11.0 20.0 0.00 0.00 0.00 39 1012.9
20260506184551 54 11 10.0 16.0 0.00 0.00 0.00 39 1013.0
20260506183044 53 44 11.0 18.0 0.00 0.00 0.00 39 1012.9
20260506181544 53 19 8.0 17.0 0.00 0.00 0.00 40 1013.0
20260506180052 53 82 7.0 19.0 0.00 0.00 0.00 39 1012.9
20260506174551 53 335 10.0 20.0 0.00 0.00 0.00 38 1013.1
20260506173112 53 42 7.0 17.0 0.00 0.00 0.00 38 1012.9
20260506171556 53 91 10.0 19.0 0.00 0.00 0.00 37 1013.1
20260506170050 53 67 7.0 19.0 0.00 0.00 0.00 39 1013.4
20260506164546 53 29 8.0 15.0 0.00 0.00 0.00 38 1013.4
20260506163059 53 100 10.0 17.0 0.00 0.00 0.00 38 1013.3
20260506161544 52 30 9.0 17.0 0.00 0.00 0.00 39 1013.4
20260506160042 51 50 10.0 21.0 0.00 0.00 0.00 39 1013.4
20260506154508 52 48 10.0 19.0 0.00 0.00 0.00 41 1013.4
20260506153004 51 347 9.0 15.0 0.00 0.00 0.00 43 1013.3
20260506151502 50 39 7.0 12.0 0.00 0.00 0.00 46 1013.4
20260506150003 50 13 8.0 12.0 0.00 0.00 0.00 45 1013.6
20260506144601 50 359 6.0 14.0 0.00 0.00 0.00 49 1013.6
20260506143057 49 36 8.0 13.0 0.00 0.00 0.00 48 1013.6
20260506141556 49 52 8.0 12.0 0.00 0.00 0.00 48 1013.5
20260506140100 49 352 7.0 12.0 0.00 0.00 0.00 46 1013.5
20260506134548 48 356 3.0 8.0 0.00 0.00 0.00 52 1013.3
20260506133044 48 331 2.0 6.0 0.00 0.00 0.00 53 1013.1
20260506131539 47 334 1.0 7.0 0.00 0.00 0.00 57 1013.0
20260506130036 46 314 1.0 4.0 0.00 0.00 0.00 65 1013.0
20260506124532 45 308 2.0 5.0 0.00 0.00 0.00 68 1012.8
20260506123030 44 213 1.0 3.0 0.00 0.00 0.00 73 1012.7
20260506121523 43 163 0.0 0.0 0.00 0.00 0.00 80 1012.3
20260506120025 42 163 0.0 0.0 0.00 0.00 0.00 85 1012.1
20260506114519 39 163 0.0 0.0 0.00 0.00 0.00 86 1012.2
20260506113019 38 163 0.0 0.0 0.00 0.00 0.00 85 1012.3
20260506111513 37 163 0.0 0.0 0.00 0.00 0.00 84 1012.2
20260506110013 37 163 0.0 0.0 0.00 0.00 0.00 83 1012.0
20260506104510 37 163 0.0 0.0 0.00 0.00 0.00 81 1011.8
20260506103011 37 163 0.0 0.0 0.00 0.00 0.00 80 1011.3
20260506101504 37 163 0.0 0.0 0.00 0.00 0.00 79 1011.3
20260506100003 37 163 0.0 0.0 0.00 0.00 0.00 78 1011.3
20260506094503 37 163 0.0 0.0 0.00 0.00 0.00 78 1011.3
20260506093003 37 163 0.0 0.0 0.00 0.00 0.00 77 1011.3
20260506091558 38 163 0.0 0.0 0.00 0.00 0.00 76 1011.3
20260506090108 38 163 0.0 0.0 0.00 0.00 0.00 75 1011.5
20260506084555 38 163 0.0 0.0 0.00 0.00 0.00 73 1011.3
20260506083053 39 163 0.0 0.0 0.00 0.00 0.00 72 1011.3
20260506081517 40 163 0.0 0.0 0.00 0.00 0.00 70 1011.1
20260506073010 43 163 0.0 1.0 0.00 0.00 0.00 62 1010.8
20260506071507 44 163 0.0 0.0 0.00 0.00 0.00 58 1010.6
20260506061601 46 163 0.0 4.0 0.00 0.00 0.00 53 1010.9